Snowfall_Accumulation
0.0 0.0 0.0 0.0 0.0 0.0 0.0 0.0 0.0 0.0 0.0 0.0 0.0 0.0 0.0 0.0 0.0 0.0 0.0 0.0 0.0 0.0 0.0 0.0 0.0 0.0 0.0 0.0 0.0 0.0 0.0 0.0 0.0 0.0 0.0 0.0 0.0 0.0 0.0 0.0 0.0 0.0 0.0 0.0 0.0 0.0 0.0 0.0 0.0
0.0 0.0 0.0 0.0 0.0 0.8 0.0 0.0 0.0 0.0 0.0 0.0 0.0 0.0 0.0 0.0 0.0 0.0 0.0 0.0 0.0 0.0 0.0 0.0 0.0 0.0 0.0 0.0 0.0 0.0 0.0 0.0 0.0 0.0 0.0 0.0 0.0 0.0 0.0 0.0 0.0 0.0 0.0 0.0 0.0 0.0 0.0 0.0 0.0
0.0 0.0 0.0 0.0 0.0 0.4 0.0 0.0 0.0 0.0 0.0 0.0 0.0 0.0 0.0 0.0 0.0 0.0 0.0 0.0 0.0 0.0 0.0 0.0 0.0 0.0 0.0 0.0 0.0 0.0 0.0 0.0 0.0 0.0 0.0 0.0 0.0 0.0 0.0 0.0 0.0 0.0 0.0 0.0 0.0 0.0 0.0 0.0 0.0
0.0 0.0 0.0 0.0 0.2 0.0 0.0 0.0 0.0 0.0 0.0 0.0 0.0 0.0 0.0 0.0 0.0 0.0 0.0 0.0 0.0 0.0 0.0 0.0 0.0 0.0 0.0 0.0 0.0 0.0 0.0 0.0 0.0 0.0 0.0 0.0 0.0 0.0 0.0 0.0 0.0 0.0 0.0 0.0 0.0 0.0 0.0 0.0 0.0
0.0 0.0 0.0 0.4 0.1 0.0 0.0 0.0 0.0 0.0 0.0 0.0 0.0 0.0 0.0 0.0 0.0 0.0 0.0 0.0 0.0 0.0 0.0 0.0 0.0 0.0 0.0 0.0 0.0 0.0 0.0 0.0 0.0 0.0 0.0 0.0 0.0 0.0 0.0 0.0 0.0 0.0 0.0 0.0 0.0 0.0 0.0 0.0 0.0
0.0 0.0 0.6 1.7 0.2 0.0 0.0 0.0 0.0 0.0 0.0 0.0 0.0 0.0 0.0 0.0 0.0 0.0 0.0 0.0 0.0 0.0 0.0 0.0 0.0 0.0 0.0 0.0 0.0 0.0 0.0 0.0 0.0 0.0 0.0 0.0 0.0 0.0 0.0 0.0 0.0 0.0 0.0 0.0 0.0 0.0 0.0 0.0 0.0
0.0 0.1 1.3 0.8 0.3 0.0 0.0 0.0 0.0 0.0 0.0 0.0 0.0 0.0 0.0 0.0 0.0 0.0 0.0 0.0 0.0 0.0 0.0 0.0 0.0 0.0 0.0 0.0 0.0 0.0 0.0 0.0 0.0 0.0 0.0 0.0 0.0 0.0 0.0 0.0 0.0 0.0 0.0 0.0 0.0 0.0 0.0 0.0 0.0
0.0 0.1 1.1 0.7 0.4 0.1 0.0 0.0 0.0 0.0 0.0 0.0 0.0 0.0 0.0 0.0 0.0 0.0 0.0 0.0 0.0 0.0 0.0 0.0 0.0 0.0 0.0 0.0 0.0 0.0 0.0 0.0 0.0 0.0 0.0 0.0 0.0 0.0 0.0 0.0 0.0 0.0 0.0 0.0 0.0 0.0 0.0 0.0 0.0
0.0 0.5 2.8 0.9 0.4 0.1 0.1 0.0 0.0 0.0 0.0 0.1 0.0 0.0 0.0 0.0 0.0 0.0 0.0 0.0 0.0 0.0 0.0 0.0 0.0 0.0 0.0 0.0 0.0 0.0 0.0 0.0 0.0 0.0 0.0 0.0 0.0 0.0 0.0 0.0 0.0 0.0 0.0 0.0 0.0 0.0 0.0 0.0 0.0
0.1 2.2 1.0 0.1 0.0 0.1 0.1 0.1 0.0 0.0 0.0 0.1 0.0 0.0 0.0 0.0 0.0 0.0 0.0 0.0 0.0 0.0 0.0 0.0 0.0 0.0 0.0 0.0 0.0 0.0 0.0 0.0 0.0 0.0 0.0 0.0 0.0 0.0 0.0 0.0 0.0 0.0 0.0 0.0 0.0 0.0 0.0 0.0 0.0
0.4 0.6 0.1 0.2 0.1 0.1 0.1 0.2 0.1 0.0 0.1 0.2 0.2 0.0 0.0 0.0 0.0 0.0 0.0 0.0 0.0 0.0 0.0 0.0 0.0 0.0 0.0 0.0 0.0 0.0 0.0 0.0 0.0 0.0 0.0 0.0 0.0 0.0 0.0 0.0 0.0 0.0 0.0 0.0 0.0 0.0 0.0 0.0 0.0
0.4 0.4 0.1 0.2 0.2 0.1 0.1 0.1 0.2 0.1 0.1 0.2 0.1 0.0 0.0 0.0 0.0 0.0 0.0 0.0 0.0 0.0 0.0 0.0 0.0 0.0 0.0 0.0 0.0 0.0 0.0 0.0 0.0 0.0 0.0 0.0 0.0 0.0 0.0 0.0 0.0 0.0 0.0 0.0 0.0 0.0 0.0 0.0 0.0
0.5 0.3 0.1 0.1 0.2 0.1 0.0 0.1 0.1 0.1 0.0 0.0 0.1 0.1 0.0 0.0 0.0 0.0 0.0 0.0 0.0 0.0 0.0 0.0 0.0 0.0 0.0 0.0 0.0 0.0 0.0 0.0 0.0 0.0 0.0 0.0 0.0 0.0 0.0 0.0 0.0 0.0 0.0 0.0 0.0 0.0 0.0 0.0 0.0
0.6 0.5 0.1 0.1 0.3 0.2 0.3 0.1 0.1 0.1 0.0 0.0 0.1 0.1 0.1 0.1 0.2 0.0 0.0 0.0 0.0 0.0 0.0 0.0 0.0 0.0 0.0 0.0 0.0 0.0 0.0 0.0 0.0 0.0 0.0 0.0 0.0 0.0 0.0 0.0 0.0 0.0 0.0 0.0 0.0 0.0 0.0 0.0 0.0
0.3 0.5 0.4 0.3 0.3 0.3 0.2 0.2 0.2 0.2 0.1 0.1 0.1 0.1 0.2 0.2 0.1 0.1 0.1 0.1 0.1 0.0 0.0 0.0 0.1 0.0 0.0 0.0 0.0 0.0 0.0 0.0 0.0 0.1 0.0 0.0 0.0 0.0 0.0 0.0 0.0 0.0 0.0 0.0 0.0 0.0 0.0 0.0 0.0
0.6 1.3 2.8 1.2 0.3 0.2 1.1 2.8 0.3 0.2 0.1 0.3 0.2 0.2 0.2 0.1 0.2 0.2 0.1 0.1 0.1 0.1 0.0 0.0 0.1 0.1 0.0 0.0 0.0 0.0 0.0 0.0 0.0 0.1 0.0 0.0 0.0 0.0 0.0 0.0 0.0 0.0 0.0 0.0 0.0 0.0 0.0 0.0 0.0
6.1 7.4 4.3 2.0 0.6 0.5 1.5 2.8 0.4 0.2 0.3 0.4 0.3 0.3 0.3 0.2 0.2 0.2 0.1 0.1 0.1 0.1 0.1 0.1 0.0 0.2 0.1 0.1 0.0 0.0 0.0 0.0 0.0 0.0 0.0 0.0 0.0 0.0 0.0 0.0 0.0 0.0 0.0 0.0 0.0 0.1 0.0 0.1 0.0
8.0 5.7 3.6 2.9 1.4 1.0 2.1 1.3 0.5 0.4 0.5 0.4 0.3 0.5 0.5 0.3 0.3 0.3 0.2 0.1 0.1 0.1 0.1 0.2 0.1 0.1 0.2 0.2 0.0 0.1 0.0 0.0 0.0 0.0 0.1 0.0 0.0 0.0 0.0 0.0 0.1 0.0 0.0 0.0 0.0 0.0 0.1 0.0 0.0
4.0 4.5 3.5 2.2 1.2 1.5 2.3 2.0 0.8 0.7 0.7 0.7 0.5 0.5 0.6 0.4 0.3 0.3 0.3 0.2 0.1 0.1 0.1 0.2 0.2 0.2 0.2 0.3 0.1 0.1 0.1 0.1 0.1 0.1 0.2 0.0 0.1 0.0 0.0 0.1 0.1 0.0 0.0 0.0 0.0 0.0 0.1 0.1 0.0
4.9 5.8 3.9 2.4 1.0 2.1 3.4 2.5 1.6 1.2 1.4 1.3 1.1 1.2 0.8 0.4 0.3 0.2 0.3 0.3 0.2 0.2 0.3 0.2 0.3 0.4 0.4 0.3 0.2 0.2 0.2 0.1 0.1 0.1 0.1 0.0 0.1 0.0 0.0 0.0 0.3 0.3 0.0 0.0 0.0 0.1 0.1 0.1 0.1
5.8 5.5 3.8 3.9 2.6 1.6 3.2 5.3 2.8 1.7 1.2 1.3 1.3 1.3 1.2 0.8 0.6 0.4 0.4 0.4 0.3 0.3 0.3 0.4 0.4 0.4 0.4 0.4 0.3 0.2 0.2 0.2 0.1 0.1 0.1 0.0 0.1 0.1 0.2 0.1 0.4 0.3 0.1 0.1 0.1 0.2 0.3 0.1 0.1
7.4 2.4 2.1 3.4 5.3 7.5 5.8 11.2 5.2 2.8 1.9 1.6 2.1 2.4 2.1 1.3 0.9 0.6 0.4 0.4 0.4 0.4 0.3 0.4 0.4 0.4 0.3 0.4 0.4 0.4 0.4 0.3 0.3 0.3 0.2 0.1 0.2 0.3 0.2 0.1 0.3 0.3 0.2 0.1 0.1 0.2 0.3 0.2 0.3
4.3 1.7 2.1 3.3 7.2 9.6 5.5 9.7 7.5 2.7 3.9 3.2 3.1 3.3 3.4 2.4 1.3 1.0 0.7 0.7 0.5 0.4 0.4 0.3 0.4 0.4 0.4 0.3 0.5 0.7 0.6 0.4 0.5 0.4 0.3 0.2 0.2 0.1 0.1 0.1 0.3 0.3 0.1 0.2 0.3 0.1 0.2 0.2 0.2
2.5 2.6 3.1 5.0 11.5 19.2 8.0 8.7 8.9 7.6 7.4 4.5 3.0 3.2 3.2 3.0 1.9 1.5 1.1 0.8 0.6 0.6 0.5 0.4 0.5 0.5 0.5 0.4 0.4 0.6 1.0 0.8 0.7 0.7 0.6 0.3 0.3 0.2 0.1 0.1 0.3 0.4 0.2 0.2 0.3 0.3 0.4 0.3 0.2
5.2 18.1 28.4 29.6 28.3 17.0 4.8 7.0 10.0 7.4 5.5 5.2 4.7 4.3 3.7 3.3 3.3 2.2 2.0 1.6 1.1 1.1 1.2 1.2 1.1 1.3 1.2 0.9 0.8 1.0 1.1 1.2 1.1 0.9 1.0 0.5 0.4 0.4 0.4 0.2 0.2 0.3 0.2 0.2 0.3 0.4 0.5 0.5 0.7
7.7 13.6 21.8 20.4 14.4 8.3 5.4 8.3 9.5 5.3 4.8 4.4 4.4 4.2 3.7 3.9 3.4 3.7 2.6 2.2 1.5 1.5 1.4 1.3 1.3 1.5 1.6 1.2 1.0 0.8 0.9 1.1 0.9 0.9 0.8 0.8 0.4 0.4 0.3 0.4 0.2 0.2 0.2 0.2 0.3 0.5 0.4 0.6 0.6
10.7 12.6 8.7 16.3 12.0 9.2 8.3 7.4 6.0 2.7 2.7 3.3 3.2 3.2 3.9 4.4 4.2 3.7 3.7 3.6 2.5 2.4 1.6 1.5 1.5 1.5 1.5 1.7 0.8 0.9 0.7 0.9 1.0 0.9 1.0 0.7 0.6 0.5 0.3 0.4 0.3 0.2 0.3 0.2 0.2 0.4 0.5 0.5 0.7
4.9 5.7 11.5 20.1 17.9 12.6 8.1 7.3 8.9 6.5 5.4 4.4 3.6 4.1 4.3 4.5 4.9 4.7 4.5 4.8 3.7 2.7 2.4 1.8 1.5 1.5 1.5 1.5 1.7 1.5 1.5 1.0 1.0 0.9 0.9 1.0 0.6 0.6 0.3 0.4 0.4 0.2 0.2 0.1 0.3 0.4 0.5 0.6 0.7
7.1 9.6 13.2 15.7 14.1 14.5 10.8 9.8 8.7 7.3 6.0 5.5 4.8 4.5 4.9 5.1 5.3 5.8 5.5 5.2 4.3 2.6 2.9 2.3 1.8 1.7 1.5 1.3 1.5 1.6 1.7 1.6 1.0 1.1 1.2 0.8 0.9 0.6 0.4 0.5 0.6 0.3 0.3 0.2 0.3 0.4 0.4 0.6 0.7
4.3 7.6 11.5 18.3 14.6 11.2 11.5 10.3 5.1 4.2 4.2 4.5 4.8 4.9 4.7 4.7 4.8 5.3 5.2 5.0 4.5 4.2 3.1 2.3 2.5 2.3 1.7 1.5 1.5 1.4 1.8 1.5 1.6 1.3 1.2 1.1 0.9 0.9 0.8 0.5 0.6 0.4 0.4 0.5 0.4 0.5 0.5 0.5 0.6